Theta_e
310 310 310 310 310 309 309 308 308 307 308 308 309 310 310 311 312 312 312 314 315 314 309 305 305 314 318 318 318 317 322 324 325 325 330 322 326 327 334 344 349 349 349 348 350
308 309 310 310 310 309 309 309 309 308 307 308 308 309 309 310 311 311 315 314 314 314 312 306 308 311 317 318 318 320 322 323 321 321 324 323 326 328 333 348 351 352 350 351 351
305 307 306 309 309 309 309 309 308 308 307 307 308 308 309 310 311 313 315 315 314 315 314 307 308 312 318 318 318 319 322 320 319 319 321 323 325 325 333 345 347 352 353 351 350
302 304 306 306 308 308 308 308 308 308 307 307 307 307 308 310 315 312 312 312 313 312 313 306 311 313 318 319 318 320 318 319 319 319 320 323 324 327 327 329 338 352 353 351 347
301 303 304 304 305 306 307 307 307 307 308 307 307 307 308 310 311 312 313 312 314 313 310 309 311 313 317 318 317 319 320 318 320 320 320 321 323 327 327 332 349 351 351 351 348
306 306 306 305 305 306 305 305 306 306 307 307 307 307 308 310 309 312 312 314 313 311 310 309 311 313 316 318 318 319 319 319 319 320 319 322 323 327 327 340 349 350 350 350 349
302 301 305 305 305 305 305 306 306 306 306 307 307 307 309 308 309 312 313 314 314 312 309 309 311 313 315 318 316 317 320 319 319 319 321 321 324 327 327 341 347 349 350 350 350
299 300 301 303 304 305 304 304 305 305 306 306 307 307 308 309 309 309 310 311 314 313 310 309 310 312 315 315 317 318 319 321 321 320 320 321 329 325 327 330 341 344 343 345 346
298 298 299 299 300 302 303 304 302 302 304 308 307 308 308 310 312 311 311 312 312 312 309 310 310 312 311 316 318 319 317 320 320 320 321 322 324 324 326 327 328 328 328 331 329
298 298 299 299 299 299 301 300 301 302 308 308 307 310 310 310 312 312 312 312 314 313 311 310 311 313 313 316 315 317 318 318 320 319 321 322 324 324 326 327 328 328 328 328 327
298 298 299 301 300 298 301 302 303 307 308 307 308 309 310 312 315 314 312 314 312 312 310 309 312 312 313 315 315 315 317 317 318 319 322 323 324 328 325 327 327 328 327 328 326
299 299 302 302 301 302 302 301 302 307 309 309 308 308 310 314 313 314 313 314 311 311 310 308 312 313 311 313 313 313 316 316 317 320 321 325 325 327 327 328 328 327 327 327 326
300 300 302 303 303 302 303 303 306 307 308 309 310 309 311 311 312 314 314 314 310 310 310 308 309 309 312 313 314 314 313 315 317 320 321 323 323 325 327 327 327 326 327 327 328
300 300 302 304 303 304 302 302 305 306 308 312 312 312 311 313 313 313 314 315 315 312 310 308 309 309 312 313 314 315 314 314 314 319 320 323 322 323 326 328 328 327 327 327 327
299 303 310 308 304 302 303 305 307 307 314 314 312 312 312 314 315 314 313 314 316 316 314 312 309 308 311 313 313 314 314 315 315 315 317 323 321 322 323 324 325 327 326 326 327
301 310 310 307 302 302 302 305 306 312 317 312 314 314 314 313 316 315 313 313 314 317 316 312 310 308 309 310 312 314 315 316 316 318 317 317 319 319 321 324 325 325 326 325 325
305 309 307 306 304 305 303 305 313 315 315 313 313 314 314 315 317 314 314 314 316 318 319 314 311 310 310 310 312 314 316 317 317 317 317 317 322 319 323 323 323 323 323 322 323
307 308 309 305 305 305 306 311 314 314 318 313 313 315 317 318 316 314 314 315 313 315 317 315 313 311 311 310 311 315 315 315 316 317 317 319 317 318 320 321 324 324 323 319 320
309 307 308 307 309 308 310 315 315 317 314 315 317 317 319 317 315 314 314 315 314 314 316 313 313 312 312 312 313 313 315 316 319 318 317 318 320 320 325 326 326 326 322 319 319
308 306 305 308 307 310 312 313 315 314 315 312 317 319 319 317 315 314 314 314 314 314 312 314 313 313 313 312 313 314 315 315 317 318 317 319 321 318 324 324 326 328 325 321 323
307 308 305 308 309 309 312 311 310 311 314 315 315 320 320 316 314 313 313 314 314 315 314 314 315 314 313 314 314 315 315 315 317 319 318 319 322 325 326 327 328 328 324 322 327
304 306 305 307 309 309 311 309 310 313 315 313 313 319 322 320 314 314 314 316 314 315 316 316 317 315 315 316 315 315 316 317 317 320 320 323 319 326 327 326 326 325 322 325 332
304 303 304 305 308 308 308 311 311 313 315 314 315 317 320 322 317 317 316 315 315 316 318 317 317 320 319 319 314 315 317 318 321 323 322 321 321 327 327 326 325 324 324 329 333
302 306 304 303 305 306 309 310 310 310 313 312 317 318 320 321 322 323 319 320 314 316 316 316 319 321 320 319 320 318 317 318 319 325 323 322 322 330 328 327 325 323 324 327 331
301 302 302 305 306 306 307 308 310 311 310 313 316 316 318 323 322 325 323 320 316 319 316 320 320 324 325 323 324 323 317 318 318 318 319 319 322 326 328 327 321 322 324 326 326
301 301 301 302 304 306 307 308 310 310 311 313 315 315 316 321 322 324 324 323 321 319 319 320 326 325 327 324 323 324 321 319 319 321 324 325 326 326 326 320 320 322 321 320 320
300 301 300 303 304 306 306 307 309 309 310 311 312 314 319 320 320 320 321 321 323 323 321 322 326 326 326 325 324 326 323 322 323 324 325 326 328 328 325 320 318 318 318 316 315
Wind_Speed
17 17 18 19 18 16 17 15 15 15 16 16 16 14 15 18 21 25 29 28 21 13 14 11 19 21 17 14 12 11 7 14 17 11 10 6 7 3 3 3 2 5 4 7 18
16 16 17 18 19 19 19 18 17 16 15 16 14 17 15 17 22 32 24 26 24 22 20 19 17 23 11 11 11 11 13 14 6 5 6 6 7 8 4 7 2 10 12 18 20
18 17 17 17 19 19 19 19 19 19 16 14 15 16 13 16 21 23 13 14 13 19 25 19 18 22 18 13 16 11 16 7 7 6 4 4 6 4 7 7 9 14 24 24 26
20 19 18 19 18 20 21 21 19 22 18 16 15 14 11 11 8 4 11 3 9 10 25 24 17 25 15 15 21 12 11 14 5 4 4 2 1 5 5 1 6 15 21 26 27
21 20 20 21 20 21 22 21 21 20 22 17 16 10 11 13 27 12 14 22 21 14 31 22 24 26 20 17 15 16 14 11 9 1 3 1 3 3 7 6 13 19 16 20 23
22 23 22 23 21 22 23 23 23 20 21 19 13 8 15 20 21 11 10 9 8 11 30 22 20 21 22 20 19 17 10 15 7 10 1 3 3 3 6 14 17 19 18 17 19
24 23 22 24 23 22 22 22 23 21 20 20 12 12 19 30 11 9 9 1 4 17 29 24 12 22 16 11 11 11 16 9 9 6 5 4 3 6 9 16 19 18 18 18 18
26 25 25 25 25 24 24 24 25 24 22 19 13 14 19 15 16 26 25 22 7 14 19 23 11 17 9 9 12 11 13 15 16 13 4 10 22 9 11 14 17 19 17 18 19
30 29 28 28 27 26 26 27 29 24 24 17 13 13 13 11 14 16 25 18 12 15 17 18 10 15 6 18 14 10 15 22 13 18 8 10 9 11 12 14 13 16 17 16 14
34 34 33 31 28 28 28 29 29 18 8 9 13 8 16 10 7 5 13 18 20 17 12 13 7 11 8 16 18 24 15 18 18 11 17 13 6 9 14 12 13 12 10 13 15
36 37 36 32 28 25 26 25 6 3 11 14 14 9 9 6 3 3 23 23 19 15 10 14 10 20 26 21 11 19 18 11 13 6 12 14 11 6 13 11 13 10 11 10 11
41 41 38 33 29 26 24 14 14 5 9 23 23 25 13 1 1 9 25 12 24 16 11 10 15 14 12 14 9 14 19 14 11 10 11 10 14 5 9 14 16 15 14 14 12
47 44 39 36 32 30 11 7 6 4 5 11 24 28 13 18 5 9 24 17 20 17 12 15 12 10 14 13 11 11 19 22 12 9 3 10 9 9 7 9 11 13 11 11 12
50 49 40 36 20 8 9 5 3 2 4 4 5 6 19 6 8 13 22 16 6 17 11 8 9 18 16 13 10 9 10 17 19 12 11 8 12 9 12 12 11 16 13 15 14
51 40 28 23 14 12 11 5 7 11 4 5 5 7 18 17 15 13 26 5 12 14 5 6 15 20 21 21 12 5 6 13 16 15 9 10 8 14 6 17 17 15 17 19 18
46 29 27 24 8 5 5 8 0 2 2 7 1 8 13 11 6 21 22 13 11 12 6 4 13 14 12 16 16 7 6 8 6 6 11 14 14 13 15 13 10 13 16 17 20
30 30 27 17 8 7 13 7 2 2 7 5 4 8 15 10 9 22 19 12 8 11 12 5 10 7 10 19 17 14 14 7 8 7 6 8 8 10 8 9 11 13 9 11 16
17 26 30 22 9 13 9 2 3 9 8 1 2 5 9 13 19 20 19 13 3 8 11 8 6 13 15 20 12 17 17 6 7 9 8 5 9 6 10 4 5 9 10 11 17
11 29 31 19 11 4 5 3 5 7 8 8 6 9 6 9 12 20 20 15 8 7 5 5 4 15 19 13 15 19 12 5 5 2 7 6 3 4 4 7 6 7 9 14 19
10 12 31 22 9 10 3 7 8 12 11 5 3 1 12 13 14 15 17 14 6 11 2 5 8 13 17 16 6 16 15 8 2 8 6 5 4 6 11 11 7 6 7 10 15
15 6 28 17 7 7 3 4 5 17 14 6 4 3 6 10 19 16 18 13 15 10 6 2 4 10 13 10 14 13 12 5 3 1 7 4 3 5 7 4 5 8 10 7 14
14 4 30 9 10 5 5 10 10 11 8 6 4 5 3 6 14 8 18 5 26 8 6 1 5 12 18 2 15 13 15 9 9 8 1 1 2 2 4 2 6 10 8 5 13
5 5 14 22 5 5 9 10 11 12 10 3 5 7 6 2 7 5 12 3 19 14 9 7 3 10 10 6 6 13 8 9 7 2 8 5 2 2 3 1 4 6 3 8 15
6 5 9 11 9 8 7 9 17 17 8 11 4 7 6 6 6 3 8 5 14 16 11 8 3 4 8 9 8 8 12 13 13 5 6 8 6 7 7 3 2 1 5 10 16
10 3 6 5 8 13 13 13 13 13 9 15 4 14 11 6 3 4 4 3 6 4 4 1 3 4 5 3 3 8 17 18 17 14 9 12 10 7 8 4 5 8 12 14 17
6 6 7 8 11 11 11 9 11 12 4 9 9 14 11 5 6 6 4 3 2 3 4 0 3 2 4 4 4 4 9 11 10 8 6 4 4 5 14 12 12 15 19 19 20
13 11 5 7 10 7 8 10 11 18 7 11 8 7 5 5 12 8 3 2 2 2 4 4 5 3 4 1 7 6 8 10 6 5 5 6 7 15 14 15 14 15 23 21 21
Wind_Direction
327 326 326 327 326 325 322 312 307 303 308 305 306 295 284 284 281 278 271 265 261 253 254 246 209 197 185 184 184 177 210 209 204 188 198 169 196 171 357 180 125 192 162 171 160
315 317 316 315 318 319 318 320 318 314 297 302 303 299 287 291 286 278 269 262 261 253 246 231 208 190 191 186 185 196 211 208 191 189 163 165 195 164 184 154 151 122 140 145 155
309 303 307 308 311 310 309 308 309 305 302 292 293 293 293 292 302 286 269 229 234 244 228 220 205 185 199 185 188 196 215 191 211 176 167 151 162 179 173 204 213 186 153 154 155
314 306 301 309 304 304 303 303 304 307 310 300 287 292 288 279 266 233 161 172 289 280 208 195 189 188 189 194 189 196 204 191 173 167 138 145 106 159 204 229 216 175 156 155 159
331 324 309 301 300 299 296 296 298 297 300 300 297 282 275 250 246 227 247 272 278 278 194 188 185 188 196 191 181 209 182 186 203 111 118 200 75 178 135 134 139 153 160 166 167
331 327 323 321 310 304 297 293 287 284 285 293 289 254 256 253 261 275 252 279 231 219 187 183 194 186 197 185 194 187 188 187 190 209 146 143 73 256 137 145 147 159 171 175 174
330 322 319 313 313 308 305 304 301 294 277 281 283 246 248 241 249 240 210 258 236 198 186 178 183 187 174 165 180 176 198 176 192 180 196 145 209 217 143 154 154 165 172 177 176
332 321 314 309 306 304 301 299 292 289 283 274 272 249 255 258 247 245 238 253 252 189 191 176 202 190 188 176 161 172 200 202 190 184 191 190 203 200 161 149 165 169 177 184 193
333 330 323 313 306 303 302 299 295 295 280 264 245 233 266 257 242 241 227 223 226 160 178 168 165 188 155 167 176 188 198 205 185 202 168 201 190 207 173 159 163 165 171 177 181
336 333 330 325 316 304 303 303 304 288 262 195 213 224 252 245 232 258 206 185 167 167 143 179 180 184 179 184 185 188 193 196 197 184 202 189 189 185 176 176 196 187 189 186 193
336 334 332 325 320 312 307 314 312 220 185 198 198 204 292 199 217 253 160 157 155 159 158 181 183 187 191 195 204 201 196 189 198 187 183 194 187 205 173 178 183 194 193 211 208
337 336 330 325 320 307 296 273 244 268 268 245 236 230 235 90 62 172 156 139 165 162 142 159 200 186 156 179 164 180 192 194 179 160 188 175 187 205 195 191 194 193 196 208 216
340 339 331 322 316 307 287 254 164 276 272 276 231 224 225 224 245 181 173 150 163 164 172 180 180 163 177 179 145 183 194 192 166 163 104 153 190 201 222 238 215 202 216 223 223
343 340 331 320 319 286 284 289 284 242 283 240 187 246 192 177 220 192 181 142 150 160 154 172 162 172 177 184 172 141 189 181 194 177 192 214 209 213 194 204 226 221 224 226 229
345 342 342 343 282 272 292 127 31 179 276 86 143 137 159 171 132 186 177 197 144 156 180 140 165 184 184 189 183 145 167 159 184 198 193 191 225 198 204 221 215 218 220 223 221
352 0 349 358 28 4 199 158 268 265 260 355 258 139 150 207 184 151 186 223 148 155 198 101 175 165 178 174 182 173 128 89 109 150 200 203 220 212 213 214 214 225 226 221 222
0 19 12 13 17 27 138 150 179 290 312 353 11 158 153 181 151 152 181 182 162 155 187 156 154 165 170 164 178 187 178 153 177 195 196 179 199 235 203 206 224 223 230 226 219
21 23 24 24 64 108 138 273 360 347 8 164 319 170 172 173 150 162 172 176 176 151 158 162 162 164 174 168 177 180 183 178 178 182 167 160 220 212 224 186 227 249 247 231 214
32 33 27 23 33 63 329 353 351 351 333 338 85 137 212 136 149 162 177 175 181 169 153 149 132 177 168 169 160 187 198 148 106 97 171 188 191 233 210 220 230 226 230 226 213
21 23 15 7 18 17 12 340 343 339 351 25 39 246 154 137 143 167 177 199 206 211 249 172 127 183 158 166 164 179 183 194 200 173 177 172 231 235 199 212 243 264 253 226 210
29 42 5 4 39 38 39 322 299 318 18 359 340 324 120 143 154 162 180 175 212 201 206 126 149 152 161 187 174 156 174 189 179 269 192 199 200 214 195 176 269 294 300 244 198
38 58 16 21 41 22 356 324 297 312 6 13 305 291 300 75 157 150 184 165 204 167 199 264 127 160 173 133 180 173 182 173 188 193 219 1 244 143 160 276 286 290 294 229 188
17 342 17 36 38 7 327 348 352 342 350 40 319 349 340 37 146 146 185 202 171 186 181 187 138 144 147 145 156 196 179 174 126 140 210 206 225 145 170 247 304 300 244 174 170
21 12 348 31 34 349 342 358 359 351 340 344 307 330 357 24 30 125 176 38 181 193 198 142 112 137 158 156 149 179 184 192 191 185 176 227 233 200 197 171 22 344 170 165 165
30 40 355 338 352 344 4 360 350 358 339 346 11 20 11 20 28 58 32 99 96 134 106 191 120 86 49 115 161 162 183 187 195 215 201 250 220 215 169 116 84 120 138 142 138
41 351 336 302 326 340 4 349 337 341 301 344 349 340 338 21 17 13 344 43 100 105 125 121 108 110 69 104 142 124 161 181 191 199 234 257 159 139 125 108 102 110 115 114 113
17 349 329 305 337 353 354 340 324 337 309 321 312 317 320 3 314 292 329 45 62 152 135 152 139 126 137 132 143 121 173 173 156 170 201 180 142 140 120 97 90 109 109 106 104